Regional Weather Roundup
Issued by NWS

Home | Current Version | Previous Version | Graphics & Text | Print | Product List | Glossary On
Versions: 1 2 3 4 5 6 7 8 9 10 11 12 13 14 15 16 17 18 19 20 21 22 23 24 25 26 27 28 29 30 31 32 33 34 35 36 37 38 39 40 41 42 43 44 45 46 47 48 49 50
000
ASUS43 KMKX 272128
RWRWI

WISCONSIN REGIONAL WEATHER ROUNDUP
NATIONAL WEATHER SERVICE MILWAUKEE/SULLIVAN WI
400 PM CDT WED MAY 27 2015

NOTE: "FAIR" INDICATES FEW OR NO CLOUDS BELOW 12,000 FEET WITH NO
SIGNIFICANT WEATHER AND/OR OBSTRUCTIONS TO VISIBILITY.

WIZ001-002-006>008-014>016-023>028-272200-
NORTHWEST WISCONSIN

CITY           SKY/WX    TMP DP  RH WIND       PRES   REMARKS
SUPERIOR ARPT  PTSUNNY   84  50  31 W9        29.87S HX  82
ASHLAND        LGT RAIN  75  52  44 W10G23    29.89R
HAYWARD        MOSUNNY   79  54  41 SW10G20   29.92F
SIREN          MOSUNNY   82  52  36 W10       29.93F HX  81
CUMBERLAND     MOSUNNY   77  55  47 SW12      29.96S
RICE LAKE      SUNNY     78  56  45 SW7G16    29.97S
CHETEK         SUNNY     77  61  56 MISG      29.96S
LADYSMITH      MOSUNNY   77  58  50 SW9G20    29.97S
EAU CLAIRE     SUNNY     79  58  48 SW15      29.96S HX  80
MENOMONIE      SUNNY     79  58  47 W12       29.97S HX  80
NEW RICHMOND   SUNNY     80  54  40 W10       29.97S HX  80
OSCEOLA        SUNNY     81  57  43 SW13      29.98S HX  81
$$

WIZ003>005-009-010-017-018-272200-
NORTH CENTRAL WISCONSIN

CITY           SKY/WX    TMP DP  RH WIND       PRES   REMARKS
MANITOWISH WTR PTSUNNY   75  52  44 W12G20    29.92R
ARBOR VITAE    SUNNY     77  56  48 W8        29.93S
WOODRUFF       SUNNY     77  56  48 W8        29.93S
RHINELANDER    MOSUNNY   76  57  51 SW12G23   29.95R
EAGLE RIVER    MOSUNNY   76  51  42 W14G22    29.92S
LAND O LAKES   MOSUNNY   76  52  42 W7        29.92S
PHILLIPS       MOSUNNY   76  58  53 SW12      29.93F
TOMAHAWK       MOSUNNY   74  56  51 SW7       29.96R
MEDFORD        MOSUNNY   73  60  65 SW12      29.97S
MERRILL        MOSUNNY   75  60  60 W15G22    29.96S
$$

WIZ029-030-035-036-043>047-272200-
CENTRAL WISCONSIN

CITY           SKY/WX    TMP DP  RH WIND       PRES   REMARKS
WAUSAU         MOSUNNY   76  59  55 W14G25    29.96R
MOSINEE        MOSUNNY   73  61  64 W14G21    29.98S
MARSHFIELD     MOSUNNY   76  58  53 W14       29.98R
STEVENS POINT  MOSUNNY   73  57  56 SW14      29.98S
WAUPACA        MOSUNNY   78  58  49 W13G21    29.97S
WAUTOMA        MOSUNNY   78  56  46 W14       29.98S
WISC RAPIDS    MOSUNNY   78  55  44 W12G20    29.99R
CAMP DOUGLAS   MOSUNNY   77  61  57 W8G21     29.99S
$$

WIZ011>013-019>022-031-037>040-048>050-272200-
NORTHEAST WISCONSIN

CITY           SKY/WX    TMP DP  RH WIND       PRES   REMARKS
ANTIGO         MOSUNNY   71  61  71 W15G21    29.96S
SHAWANO        MOSUNNY   75  60  59 W13       29.94S
OCONTO         MOSUNNY   74  60  61 W12G21    29.91F
STURGEON BAY   SUNNY     70  57  64 W14G20    29.94F
GREEN BAY      MOSUNNY   74  61  63 SW14      29.95S
MANITOWOC      SUNNY     71  58  63 W12       29.97R
APPLETON       PTSUNNY   72  55  56 W13G20    29.97S
CLINTONVILLE   MOSUNNY   75  57  53 W9G18     29.94F
OSHKOSH        MOSUNNY   73  57  57 W10G17    29.97S
$$

WIZ032>034-041-042-053>061-272200-
SOUTHWEST WISCONSIN

CITY           SKY/WX    TMP DP  RH WIND       PRES   REMARKS
LA CROSSE      MOSUNNY   81  58  45 SW9       29.98S HX  81
SPARTA         MOSUNNY   78  55  45 W7G17     30.00F
VIROQUA        MOSUNNY   76  58  53 W10G20    30.03S
BOSCOBEL       MOSUNNY   78  59  51 SW9       30.02R
PRAIRIE DU CHI MOSUNNY   78  55  44 W12G17    30.02R
PLATTEVILLE    MOSUNNY   76  59  55 SW9       30.04S
$$

WIZ056-057-062-063-064-067-068-272200-
SOUTH CENTRAL WISCONSIN

CITY           SKY/WX    TMP DP  RH WIND       PRES   REMARKS
REEDSBURG      MOSUNNY   75  58  55 W12       30.00S
BARABOO/DELLS  MOSUNNY   74  56  52 W10       30.01S
LONE ROCK      SUNNY     76  55  48 W12       30.02R
MINERAL POINT  MOSUNNY   77  54  44 NW7       30.04S
MADISON        MOSUNNY   75  54  47 W7        30.01S
MIDDLETON      SUNNY     76  52  43 SW8       30.02S
WATERTOWN      SUNNY    N/A N/A N/A W6        30.01S
MONROE         SUNNY     73  54  49 W6        30.04S
JANESVILLE     SUNNY     75  52  43 N6        30.01S
$$

WIZ051-052-058>065-066-070>072-272200-
SOUTHEAST WISCONSIN

CITY           SKY/WX    TMP DP  RH WIND       PRES   REMARKS
MILWAUKEE      MOSUNNY   69  57  65 NE10      30.00R
WAUKESHA       MOSUNNY   70  54  56 NW8       30.02R
MILWAUKEE/TIMM SUNNY     72  52  49 N9        30.01R
RACINE         SUNNY     69  56  62 NE12      30.02R
BURLINGTON     MOSUNNY   69  53  55 N5        30.02S
KENOSHA        PTSUNNY   73  60  63 NW13      30.01R
FOND DU LAC    MOSUNNY   73  57  57 W8G20     29.99R
SHEBOYGAN      MOSUNNY   73  56  54 W12       29.98R
WEST BEND      MOSUNNY   72  52  49 W9        30.00R
JUNEAU         SUNNY     70  55  59 W6        30.02S
$$

LSZ147-162-272200-
LAKE SUPERIOR

STATION/POSITION TIME  TEMP    WIND        PRES    WAVE
                       AIR SEA DIR/SP/G            HT/PER
                 (UTC) (F)     (DEG/KT/KT) (MB)    (FT/S)
W MID LAKE BUOY  2050   44 37  240/ 10/ 12   N/A     1/ 4
DEVILS ISLAND    2100   67     240/ 12/ 15   N/A
PORT WING        2000   76     250/ 10/ 15   N/A
SAXON HARBOR     2040   75        CALM       N/A
$$

LMZ867-665-643>646-272200-
LAKE MICHIGAN

STATION/POSITION TIME  TEMP    WIND        PRES    WAVE
                       AIR SEA DIR/SP/G            HT/PER
                 (UTC) (F)     (DEG/KT/KT) (MB)    (FT/S)
CHAMBERS ISLAND  2000   64     180/ 11/ 17   N/A
N MID LAKE BUOY  2050   44 36  210/ 10/ 10   N/A     2/ 5
NORTHPORT PIER   2000   67     240/  8/ 13   N/A
SISTER BAY       2018   69     230/ 14/ 16   N/A
ALGOMA LAKESHORE 1908          250/  8/  9   N/A
KEWAUNEE LAKESHO 2000   69     230/  7/ 12   N/A
SHEBOYGAN LAKESH 2100   61     130/  7/  7   N/A
PORT WASHINGTON  2040          100/  3/  3   N/A
ATWATER BUOY     2000   56 47   50/  4/  6   N/A
MILWAUKEE LAKESH 2000   62      40/ 11/ 13   N/A
S MID LAKE BUOY  2050   49 38  250/  6/  8   N/A     1
KENOSHA   LAKESH 1900   66     280/  9/ 14   N/A
$$

TC  - TEMPERATURE IN CELSIUS
VSB - VISIBILITY IN STATUTE MILES
WCI - WIND CHILL INDEX
HX  - HEAT INDEX



USA.gov is the U.S. government's official web portal to all federal, state and local government web resources and services.